When you browse on this site, cookies collect data to enhance your experience and personalize the content and advertising you see.
Visit our Privacy Policy to learn more. By continuing to use the site, you agree to this use of cookies and data.
  • Em Portugal
  • Lista de países
  • Para 7 dias
  • Temperatura da água
  • Mapas de satélite
  • Mapa do tempo
  • Widgets de tempo
  • user-avatar
    Iniciar Sessão

    Previsão horária em Raclawowka

    Hoje, 24 Março, Domingo

    Tempo Temperatura Precipitação Vento Pressão Humidade
    00:00 +8°C° 0 mm 1 m/s 743 mmHg 50%
    01:00 +7°C° 0 mm 1 m/s 743 mmHg 57%
    02:00 +7°C° 0 mm 2 m/s 743 mmHg 62%
    03:00 +7°C° 0 mm 2 m/s 743 mmHg 67%
    04:00 +7°C° 0 mm 2 m/s 743 mmHg 72%
    05:00 +7°C° 0.1 mm 3 m/s 743 mmHg 78%
    06:00 +7°C° 0.1 mm 3 m/s 743 mmHg 84%
    07:00 +6°C° 0 mm 4 m/s 743 mmHg 90%
    08:00 +7°C° 0 mm 4 m/s 743 mmHg 82%
    09:00 +7°C° 0 mm 4 m/s 743 mmHg 74%
    10:00 +8°C° 0 mm 4 m/s 743 mmHg 67%
    11:00 +10°C° 0 mm 3 m/s 743 mmHg 60%
    12:00 +11°C° 0 mm 3 m/s 743 mmHg 53%
    13:00 +12°C° 0 mm 3 m/s 742 mmHg 46%
    14:00 +12°C° 0 mm 3 m/s 742 mmHg 44%
    15:00 +13°C° 0 mm 2 m/s 741 mmHg 43%
    16:00 +13°C° 0 mm 2 m/s 741 mmHg 41%
    17:00 +10°C° 0 mm 2 m/s 740 mmHg 44%
    18:00 +10°C° 0 mm 1 m/s 740 mmHg 48%
    19:00 +8°C° 0 mm 1 m/s 739 mmHg 51%
    20:00 +8°C° 0 mm 1 m/s 739 mmHg 51%
    21:00 +8°C° 0 mm 1 m/s 739 mmHg 52%
    22:00 +8°C° 0 mm 1 m/s 739 mmHg 52%
    23:00 +8°C° 0.1 mm 1 m/s 738 mmHg 55%

    Amanhã, 25 Março, Segunda-feira

    Tempo Temperatura Precipitação Vento Pressão Humidade
    00:00 +8°C° 0.1 mm 1 m/s 738 mmHg 58%
    01:00 +6°C° 0.1 mm 0 m/s 737 mmHg 61%
    02:00 +6°C° 0.1 mm 0 m/s 736 mmHg 65%
    03:00 +7°C° 0.1 mm 1 m/s 736 mmHg 68%
    04:00 +6°C° 0.1 mm 1 m/s 735 mmHg 71%
    05:00 +6°C° 0.2 mm 1 m/s 735 mmHg 72%
    06:00 +6°C° 0.2 mm 1 m/s 735 mmHg 73%
    07:00 +6°C° 0.2 mm 1 m/s 735 mmHg 73%
    08:00 +7°C° 0 mm 1 m/s 735 mmHg 68%
    09:00 +7°C° 0 mm 2 m/s 734 mmHg 63%
    10:00 +8°C° 0 mm 2 m/s 734 mmHg 58%
    11:00 +9°C° 0.1 mm 3 m/s 734 mmHg 55%
    12:00 +10°C° 0.1 mm 3 m/s 734 mmHg 53%
    13:00 +10°C° 0.1 mm 3 m/s 733 mmHg 50%
    14:00 +10°C° 0.3 mm 4 m/s 733 mmHg 51%
    15:00 +9°C° 0.3 mm 5 m/s 733 mmHg 51%
    16:00 +8°C° 0.3 mm 5 m/s 733 mmHg 52%
    17:00 +7°C° 0.1 mm 4 m/s 733 mmHg 55%
    18:00 +6°C° 0.1 mm 4 m/s 734 mmHg 59%
    19:00 +7°C° 0.1 mm 3 m/s 734 mmHg 62%
    20:00 +5°C° 0.1 mm 3 m/s 735 mmHg 66%
    21:00 +4°C° 0.1 mm 4 m/s 735 mmHg 71%
    22:00 +3°C° 0.1 mm 4 m/s 736 mmHg 75%
    23:00 +3°C° 0 mm 4 m/s 736 mmHg 77%

    Depois de amanhã, 26 Março, Terça-feira

    Tempo Temperatura Precipitação Vento Pressão Humidade
    00:00 +3°C° 0 mm 4 m/s 737 mmHg 78%
    01:00 +2°C° 0 mm 5 m/s 737 mmHg 79%
    02:00 +1°C° 0 mm 4 m/s 738 mmHg 81%
    03:00 +1°C° 0 mm 4 m/s 738 mmHg 84%
    04:00 0°C° 0 mm 4 m/s 739 mmHg 87%
    05:00 0°C° 0 mm 4 m/s 739 mmHg 86%
    06:00 0°C° 0 mm 4 m/s 740 mmHg 85%
    07:00 0°C° 0 mm 5 m/s 740 mmHg 84%
    08:00 +1°C° 0 mm 5 m/s 741 mmHg 78%
    09:00 +2°C° 0 mm 5 m/s 741 mmHg 73%
    10:00 +3°C° 0 mm 6 m/s 741 mmHg 67%
    11:00 +4°C° 0 mm 6 m/s 741 mmHg 61%
    12:00 +5°C° 0 mm 6 m/s 741 mmHg 56%
    13:00 +6°C° 0 mm 7 m/s 740 mmHg 50%
    14:00 +6°C° 0 mm 7 m/s 740 mmHg 50%
    15:00 +6°C° 0 mm 7 m/s 740 mmHg 49%
    16:00 +6°C° 0 mm 8 m/s 739 mmHg 49%
    17:00 +5°C° 0.1 mm 7 m/s 740 mmHg 53%
    18:00 +5°C° 0.1 mm 7 m/s 740 mmHg 57%
    19:00 +4°C° 0.1 mm 6 m/s 740 mmHg 61%
    20:00 +3°C° 0 mm 6 m/s 741 mmHg 64%
    21:00 +2°C° 0 mm 5 m/s 741 mmHg 66%
    22:00 +1°C° 0 mm 5 m/s 742 mmHg 69%
    23:00 0°C° 0.1 mm 4 m/s 742 mmHg 66%

    27 Março, Quarta-feira

    Tempo Temperatura Precipitação Vento Pressão Humidade
    00:00 0°C° 0.1 mm 4 m/s 743 mmHg 64%
    01:00 0°C° 0.1 mm 3 m/s 743 mmHg 62%
    02:00 -1°C° 0 mm 3 m/s 743 mmHg 62%
    03:00 -2°C° 0 mm 2 m/s 743 mmHg 63%
    04:00 -3°C° 0 mm 2 m/s 744 mmHg 63%
    05:00 -2°C° 0 mm 2 m/s 744 mmHg 59%
    06:00 -2°C° 0 mm 2 m/s 745 mmHg 55%
    07:00 -1°C° 0 mm 2 m/s 745 mmHg 51%
    08:00 0°C° 0 mm 3 m/s 746 mmHg 45%
    09:00 +2°C° 0 mm 3 m/s 746 mmHg 39%
    10:00 +3°C° 0 mm 3 m/s 746 mmHg 34%
    11:00 +4°C° 0 mm 3 m/s 746 mmHg 34%
    12:00 +5°C° 0 mm 3 m/s 746 mmHg 34%
    13:00 +7°C° 0 mm 3 m/s 746 mmHg 35%
    14:00 +7°C° 0 mm 3 m/s 746 mmHg 39%
    15:00 +7°C° 0 mm 3 m/s 745 mmHg 43%
    16:00 +7°C° 0 mm 3 m/s 745 mmHg 47%
    17:00 +6°C° 0 mm 2 m/s 745 mmHg 52%
    18:00 +5°C° 0 mm 2 m/s 746 mmHg 57%
    19:00 +5°C° 0 mm 1 m/s 746 mmHg 62%
    20:00 +4°C° 0 mm 1 m/s 746 mmHg 64%
    21:00 +4°C° 0 mm 1 m/s 746 mmHg 66%
    22:00 +3°C° 0 mm 2 m/s 747 mmHg 68%
    23:00 +3°C° 0 mm 2 m/s 747 mmHg 68%

    28 Março, Quinta-feira

    Tempo Temperatura Precipitação Vento Pressão Humidade
    00:00 +3°C° 0 mm 2 m/s 747 mmHg 69%
    01:00 +3°C° 0 mm 2 m/s 747 mmHg 69%
    02:00 +3°C° 0 mm 2 m/s 747 mmHg 71%
    03:00 +3°C° 0 mm 2 m/s 747 mmHg 72%
    04:00 +3°C° 0 mm 2 m/s 747 mmHg 74%
    05:00 +3°C° 0 mm 2 m/s 747 mmHg 75%
    06:00 +4°C° 0 mm 2 m/s 748 mmHg 76%
    07:00 +5°C° 0 mm 1 m/s 748 mmHg 77%
    08:00 +5°C° 0 mm 2 m/s 748 mmHg 73%
    09:00 +7°C° 0 mm 2 m/s 748 mmHg 68%
    10:00 +9°C° 0 mm 2 m/s 749 mmHg 63%
    11:00 +9°C° 0.1 mm 2 m/s 749 mmHg 61%
    12:00 +9°C° 0.1 mm 2 m/s 749 mmHg 60%
    13:00 +10°C° 0.1 mm 2 m/s 749 mmHg 58%
    14:00 +10°C° 0.1 mm 2 m/s 748 mmHg 58%
    15:00 +10°C° 0.1 mm 2 m/s 748 mmHg 58%
    16:00 +10°C° 0.1 mm 2 m/s 748 mmHg 59%
    17:00 +9°C° 0 mm 2 m/s 748 mmHg 64%
    18:00 +7°C° 0 mm 2 m/s 749 mmHg 70%
    19:00 +6°C° 0 mm 2 m/s 749 mmHg 76%
    20:00 +6°C° 0 mm 1 m/s 749 mmHg 78%
    21:00 +6°C° 0 mm 1 m/s 749 mmHg 81%
    22:00 +5°C° 0 mm 1 m/s 750 mmHg 83%
    23:00 +4°C° 0 mm 0 m/s 750 mmHg 84%

    29 Março, Sexta-feira

    Tempo Temperatura Precipitação Vento Pressão Humidade
    00:00 +4°C° 0 mm 0 m/s 750 mmHg 84%
    01:00 +3°C° 0 mm 0 m/s 750 mmHg 85%
    02:00 +3°C° 0 mm 0 m/s 750 mmHg 86%
    03:00 +3°C° 0 mm 0 m/s 750 mmHg 86%
    04:00 +3°C° 0 mm 0 m/s 750 mmHg 87%
    05:00 +3°C° 0 mm 0 m/s 750 mmHg 84%
    06:00 +4°C° 0 mm 0 m/s 750 mmHg 81%
    07:00 +5°C° 0 mm 0 m/s 750 mmHg 78%
    08:00 +7°C° 0 mm 1 m/s 750 mmHg 71%
    09:00 +9°C° 0 mm 1 m/s 750 mmHg 64%
    10:00 +11°C° 0 mm 1 m/s 750 mmHg 57%
    11:00 +12°C° 0 mm 2 m/s 749 mmHg 54%
    12:00 +12°C° 0 mm 2 m/s 749 mmHg 51%
    13:00 +13°C° 0 mm 2 m/s 749 mmHg 48%
    14:00 +13°C° 0 mm 2 m/s 748 mmHg 49%
    15:00 +13°C° 0 mm 2 m/s 748 mmHg 49%
    16:00 +13°C° 0 mm 2 m/s 748 mmHg 50%
    17:00 +12°C° 0 mm 2 m/s 747 mmHg 55%
    18:00 +11°C° 0 mm 1 m/s 747 mmHg 60%
    19:00 +9°C° 0 mm 1 m/s 747 mmHg 65%
    20:00 +9°C° 0 mm 1 m/s 747 mmHg 67%
    21:00 +8°C° 0 mm 1 m/s 747 mmHg 69%
    22:00 +8°C° 0 mm 1 m/s 747 mmHg 71%
    23:00 +7°C° 0 mm 1 m/s 747 mmHg 73%
    Mostrar mais